Location: Bernadets
(43.3537°N, 0.3167°E)
Time: 09:49:34
(UTC+00:00)

Cosmos 2278 Rocket - Visible Passes

Search period start: 22 May 2022 00:00
Search period end: 01 June 2022 00:00
Orbit: 839 x 847 km, 71.0° (Epoch: 21 May)

Date Brightness Start Highest point End Pass type
(mag) Time Alt. Az. Time Alt. Az. Time Alt. Az.
22 May 3.2 00:53:58 10° NNW 00:59:24 44° ENE 01:03:25 17° SE visible
22 May 3.1 02:38:27 10° NW 02:43:14 29° WSW 02:45:11 23° SW visible
23 May 3.2 00:39:23 10° NNW 00:44:47 42° ENE 00:48:17 20° ESE visible
23 May 3.0 02:23:48 10° NW 02:28:40 30° WSW 02:30:04 27° SW visible
24 May 3.3 00:24:49 10° NNW 00:30:10 40° ENE 00:33:17 22° ESE visible
24 May 3.0 02:09:09 10° NW 02:14:05 31° WSW 02:15:04 30° WSW visible
25 May 3.3 00:10:14 10° NNW 00:15:33 39° ENE 00:18:23 24° ESE visible
25 May 2.9 01:54:31 10° NW 01:59:31 33° WSW 02:00:11 32° WSW visible
25 May 3.4 23:55:40 10° N 00:00:56 37° ENE 00:03:35 24° ESE visible
26 May 2.9 01:39:52 10° NW 01:44:56 34° WSW 01:45:23 34° WSW visible
26 May 3.4 23:41:06 10° N 23:46:19 36° NE 23:48:51 25° ESE visible
27 May 2.8 01:25:14 10° NW 01:30:22 36° WSW 01:30:39 36° WSW visible
27 May 3.4 23:26:31 10° N 23:31:42 35° NE 23:34:10 24° E visible
28 May 2.8 01:10:36 10° NW 01:15:47 37° WSW 01:15:59 37° WSW visible
28 May 3.5 23:11:57 10° N 23:17:05 33° NE 23:19:33 24° E visible
29 May 2.8 00:55:59 10° NW 01:01:12 39° WSW 01:01:22 39° WSW visible
29 May 3.5 22:57:24 10° N 23:02:28 32° NE 23:04:58 23° E visible
30 May 2.7 00:41:20 10° NW 00:46:38 41° WSW 00:46:47 41° WSW visible
30 May 3.5 22:42:50 10° N 22:47:51 31° NE 22:50:26 22° E visible
31 May 2.7 00:26:43 10° NW 00:32:03 43° WSW 00:32:15 43° WSW visible
31 May 3.6 22:28:15 10° N 22:33:13 30° NE 22:35:57 20° E visible
